Theta_e
308 302 299 302 304 304 304 302 301 305 308 305 304 304 306 310 310 310 310 311 313 315 318 320 325 331 333 337 338 340 341 341 339 338 336 335 334 335 336 337 337 338 339 339
303 299 305 306 306 304 303 301 301 305 308 305 304 302 306 308 310 310 310 311 312 314 314 316 319 322 324 326 329 331 332 336 339 339 337 336 335 335 335 336 336 336 335 335
300 303 306 305 304 302 303 301 301 301 305 306 304 301 303 307 310 312 312 313 313 314 312 313 314 317 319 319 320 320 321 321 322 330 337 335 334 333 331 332 333 334 335 336
301 305 304 303 302 303 299 305 304 302 301 295 304 293 301 305 306 308 311 312 313 314 313 312 312 313 315 316 317 316 316 315 317 319 321 322 321 320 323 325 333 334 335 334
299 302 302 302 303 305 302 307 304 303 300 299 299 296 300 306 304 307 310 311 313 313 311 310 311 311 312 315 315 315 315 314 315 317 317 315 316 316 317 318 320 324 328 331
303 307 305 305 307 307 307 304 303 302 300 292 298 297 298 302 305 307 309 310 312 311 311 311 311 310 309 314 314 314 311 311 313 313 314 314 313 314 313 314 314 316 319 325
299 300 304 306 302 305 304 299 291 289 290 289 299 296 299 305 308 309 307 308 310 310 310 308 307 306 306 308 310 310 308 307 309 310 310 311 312 313 312 313 312 313 314 316
292 291 300 304 303 300 301 299 292 285 287 291 299 293 299 308 309 312 310 310 310 308 307 306 305 306 305 307 308 308 307 307 308 309 310 311 312 309 310 310 312 313 313 314
295 293 303 303 305 303 299 296 302 293 295 290 294 299 303 305 307 308 308 308 307 306 304 304 304 306 306 306 307 307 307 307 307 308 309 309 310 310 310 311 312 313 314 314
300 293 301 303 305 304 301 303 293 294 284 283 290 293 294 298 302 305 305 305 305 304 303 303 303 305 305 306 306 307 306 306 307 308 309 308 309 310 311 311 311 312 313 314
302 297 297 302 299 297 297 296 297 297 293 286 285 290 302 302 303 304 306 305 303 302 302 302 303 304 305 306 306 305 305 305 306 307 309 309 310 311 312 311 311 311 312 311
303 298 292 296 304 304 302 298 298 290 289 292 292 293 305 307 306 307 306 306 304 302 302 302 303 304 304 304 304 304 305 306 307 308 309 309 311 311 310 310 311 309 307 308
302 294 287 291 296 301 299 300 300 299 297 292 288 292 304 306 305 307 306 306 302 302 302 302 303 303 303 303 304 304 305 306 307 307 308 309 310 310 309 308 307 306 305 305
303 295 292 289 293 295 294 297 299 297 291 292 294 296 299 302 302 304 304 303 301 300 300 301 302 303 303 304 304 304 305 306 306 306 307 307 308 308 306 305 304 303 303 302
301 292 296 297 297 297 295 295 297 296 297 291 295 296 300 302 303 303 304 300 298 298 298 299 300 302 303 302 302 303 304 305 306 306 306 306 305 305 303 301 301 301 300 299
302 293 295 293 298 296 292 296 297 299 298 298 298 297 304 306 306 304 301 299 298 298 298 299 299 299 299 300 300 302 302 304 307 305 304 304 303 301 300 300 299 299 298 297
297 291 292 288 295 291 287 293 296 296 298 298 294 300 303 303 303 304 302 300 299 298 298 298 298 298 299 300 301 300 302 304 305 304 302 301 301 299 299 299 299 297 294 293
296 292 290 286 288 281 294 300 299 298 298 300 299 300 301 302 304 304 303 301 298 298 298 298 298 298 299 301 300 302 302 302 303 302 301 300 300 299 298 297 296 294 292 292
299 291 285 284 284 289 292 295 292 293 293 299 298 300 301 300 302 302 302 300 299 299 299 299 298 299 300 299 301 300 299 300 301 301 300 299 299 297 296 294 293 292 291 289
296 294 289 285 282 280 292 297 297 298 287 299 299 299 300 296 291 294 297 298 298 299 299 298 298 299 299 300 301 299 298 298 299 301 299 298 296 293 292 292 292 291 291 288
285 285 285 284 283 287 295 295 298 285 288 299 300 300 299 293 295 298 298 298 298 297 297 298 298 297 298 299 300 298 297 297 300 301 298 296 294 292 292 292 292 291 289 287
285 283 283 285 283 281 295 294 289 294 295 297 300 301 300 297 296 296 296 296 296 296 296 297 297 297 298 299 299 298 297 299 300 300 298 294 292 291 291 290 289 289 288 287
286 291 287 289 289 295 294 295 296 297 294 297 296 297 297 295 295 296 296 296 295 295 295 296 296 297 298 298 298 297 299 299 299 297 293 292 291 289 289 288 288 288 287 287
293 296 291 290 291 292 292 295 296 296 295 296 296 296 296 294 295 295 294 294 294 295 295 295 295 295 296 298 298 298 299 300 299 295 292 291 289 287 288 288 288 288 287 287
292 293 290 289 292 292 292 293 294 294 296 295 295 295 294 294 293 293 293 292 293 294 294 294 294 295 296 297 297 298 298 299 298 295 291 289 289 287 287 287 288 287 287 288
293 290 288 287 292 290 291 294 295 294 293 293 292 291 292 292 291 292 292 292 293 293 294 294 295 295 296 296 296 297 298 298 297 294 291 290 289 288 288 287 285 286 286 287
Wind_Speed
21 16 19 25 25 25 20 22 21 18 19 17 16 13 18 14 15 15 12 13 10 11 12 7 5 6 8 6 6 9 12 10 7 5 4 2 2 2 1 1 1 2 2 4
22 25 23 25 24 26 25 24 23 20 18 9 14 17 17 18 14 18 20 16 14 16 13 10 6 6 6 6 6 7 7 7 9 8 6 3 3 3 4 4 5 5 5 4
29 24 25 28 27 26 24 24 20 22 18 18 20 21 17 16 20 20 16 14 17 19 15 11 9 7 6 6 6 8 9 9 8 4 6 4 3 1 2 4 4 5 7 8
27 24 26 28 30 27 25 23 22 21 19 17 18 16 21 22 25 26 19 14 15 17 16 12 11 9 7 5 6 7 7 6 7 9 5 4 2 2 1 2 4 2 7 6
27 23 29 30 25 24 24 21 20 21 20 18 23 18 12 17 16 11 18 13 17 16 15 14 13 12 10 7 5 4 6 7 7 7 7 5 6 4 4 4 6 2 3 5
28 21 25 25 22 20 20 21 17 14 13 20 19 20 18 17 18 17 17 14 17 18 16 14 12 12 10 6 5 4 4 6 6 4 4 3 3 4 4 5 4 4 3 2
25 33 27 24 25 21 22 14 10 13 16 18 16 21 18 15 21 24 22 17 17 16 14 13 12 9 11 7 6 5 5 5 4 4 3 3 3 3 5 5 3 4 4 4
26 27 31 23 26 20 22 20 10 17 15 15 11 19 21 17 6 18 26 21 18 16 13 12 11 8 7 6 6 4 3 2 3 1 2 2 2 2 3 3 3 3 3 4
18 32 17 29 14 18 14 25 15 16 13 12 10 18 4 2 9 17 22 21 19 16 13 11 10 6 5 6 6 5 1 2 1 1 1 3 3 4 4 5 4 3 4 3
22 11 23 25 20 25 24 15 13 10 9 15 12 17 11 12 14 19 21 20 17 15 13 10 9 8 5 5 3 5 3 3 3 1 2 3 3 4 3 4 6 4 4 3
26 14 18 14 31 24 19 18 16 9 12 9 8 10 2 8 18 20 18 18 17 14 12 9 8 7 6 5 4 4 3 1 3 4 4 5 4 5 4 3 4 4 3 5
27 16 18 23 21 30 26 26 24 10 6 12 11 4 5 6 10 16 18 17 15 13 11 10 8 6 6 5 3 4 3 3 4 3 3 4 5 4 3 3 4 7 5 6
21 7 5 8 6 12 29 27 27 22 9 15 11 3 2 10 11 13 17 16 14 13 13 8 7 6 5 4 2 1 2 2 3 4 5 5 5 4 2 6 6 5 6 4
15 8 11 9 4 11 17 16 21 20 16 12 17 9 9 10 14 15 16 17 16 12 11 10 8 7 5 4 2 2 2 3 3 5 5 6 5 7 6 6 4 4 4 4
12 11 13 11 8 4 18 19 21 27 23 19 14 21 15 12 11 16 16 14 14 16 15 12 9 6 5 3 1 2 3 4 3 4 6 5 6 5 4 3 4 2 3 3
15 11 17 17 19 13 8 17 23 27 27 26 22 20 12 11 9 11 16 17 16 15 15 12 8 6 6 4 0 2 4 4 1 4 6 5 4 4 2 2 1 3 3 2
14 6 13 14 14 3 9 27 24 19 23 21 24 18 13 16 17 16 18 17 17 13 12 9 7 6 4 3 1 2 4 5 5 5 4 3 3 3 3 2 3 3 1 1
19 14 4 6 10 9 12 14 29 26 22 20 20 13 10 10 15 12 18 17 12 12 9 8 7 6 6 5 2 3 3 5 4 4 2 4 4 4 2 1 4 1 4 3
18 10 6 8 8 5 10 13 11 14 19 25 22 13 11 7 6 11 16 15 11 9 8 8 9 6 4 4 4 3 4 2 3 4 3 2 3 0 3 2 3 5 4 2
14 4 4 6 7 13 4 12 15 10 18 16 16 12 12 14 10 8 12 11 10 10 8 7 7 6 5 5 6 5 3 2 1 1 2 4 4 4 4 2 3 3 3 3
9 6 11 8 4 6 4 8 12 10 3 4 11 10 14 13 7 9 17 12 12 10 11 11 9 7 7 8 7 3 3 1 5 3 4 4 4 5 5 6 4 4 5 4
16 12 8 6 6 11 19 15 13 6 4 6 7 6 8 17 17 15 14 13 13 10 8 9 8 7 8 5 7 6 4 2 5 5 3 4 5 4 4 6 5 5 4 4
11 9 10 14 8 5 20 8 11 8 10 8 12 11 18 18 17 14 12 9 7 6 7 8 7 5 4 3 2 6 6 2 6 6 0 4 4 4 5 5 4 5 5 4
6 13 7 10 6 17 15 14 12 13 12 14 12 12 13 15 14 12 10 8 8 8 8 7 7 7 3 2 4 3 0 6 5 7 4 4 4 3 3 4 5 5 5 4
6 12 11 5 13 17 14 16 16 15 14 16 14 13 12 10 10 9 7 7 6 5 6 6 6 4 4 5 4 4 4 2 6 7 6 4 4 5 4 4 4 4 2 4
10 11 11 7 16 6 18 18 17 18 16 15 13 11 10 9 9 8 6 5 6 6 7 6 5 5 5 5 5 3 2 6 4 5 6 6 4 4 5 5 2 7 3 5
Wind_Direction
212 217 217 223 224 240 253 270 269 257 227 192 212 244 254 215 186 197 224 202 191 147 116 111 70 66 89 84 109 140 142 149 147 148 143 146 171 196 237 248 296 347 253 227
217 224 223 233 235 234 238 253 262 275 274 259 231 234 252 269 240 201 204 186 183 133 137 131 116 79 72 87 101 107 99 135 173 157 155 155 168 179 179 184 202 194 215 223
219 220 217 233 238 241 240 239 247 253 258 261 252 254 241 250 252 255 234 200 187 147 150 145 137 122 98 81 65 75 72 51 37 60 142 121 132 44 182 195 204 203 205 201
233 231 234 219 231 238 236 241 238 248 250 246 248 248 240 231 235 231 227 203 140 143 147 154 146 137 120 89 65 75 74 77 54 24 67 70 67 76 126 58 155 179 199 220
220 212 222 235 215 223 251 244 246 234 247 258 249 265 257 253 241 232 187 163 145 149 145 153 157 150 133 114 94 52 92 84 52 42 35 24 29 6 351 357 359 353 214 201
233 234 229 236 234 235 234 241 250 263 249 242 245 256 251 248 239 202 188 173 150 143 149 153 155 139 128 138 125 102 73 94 95 73 49 32 17 348 341 342 328 297 272 211
230 226 242 234 235 237 235 215 225 229 232 250 243 250 249 249 252 258 169 158 151 148 154 149 159 165 147 142 145 176 94 78 81 71 64 23 350 324 286 277 289 336 345 344
224 229 214 231 221 227 218 214 210 224 233 249 268 259 254 280 314 234 153 156 144 146 143 166 164 146 142 161 143 121 107 156 111 133 67 352 329 305 308 308 342 336 331 306
214 232 219 219 200 209 208 218 222 252 282 285 248 276 73 13 110 119 143 148 152 148 156 174 150 146 172 151 142 132 107 318 335 71 229 225 256 286 283 297 285 280 304 292
235 271 218 219 210 209 219 208 198 208 215 238 234 238 259 182 165 156 156 157 152 152 161 173 157 167 165 162 148 150 192 250 267 350 346 297 293 273 285 307 300 289 280 16
229 234 249 240 212 195 203 225 198 218 217 227 250 245 315 296 188 166 159 150 155 160 166 164 171 156 167 174 192 161 180 270 318 264 241 236 240 245 251 246 282 292 353 20
201 215 238 250 266 201 199 213 219 211 185 229 257 223 57 59 149 157 153 154 158 159 164 184 167 153 186 181 191 199 180 208 242 277 270 247 242 252 250 258 263 52 33 18
184 144 171 242 268 260 207 204 212 209 222 222 203 193 165 165 167 164 157 160 160 171 178 159 169 173 190 206 159 263 277 328 320 311 329 318 302 288 256 57 55 31 26 337
145 166 208 203 170 182 216 205 219 214 217 207 223 206 185 185 174 177 170 167 163 166 180 182 182 160 194 177 199 263 298 296 357 337 328 327 335 46 55 58 36 35 23 349
155 198 209 233 78 299 210 211 214 219 214 211 220 239 236 184 201 185 169 150 172 184 192 192 184 166 153 179 158 314 352 2 323 357 345 358 56 44 42 55 44 345 304 320
190 199 202 205 210 180 223 265 223 212 224 240 239 243 246 144 217 174 160 175 189 194 193 194 182 169 174 197 189 351 353 311 24 21 36 16 8 5 23 16 304 273 270 312
191 145 172 216 210 158 231 212 245 237 232 229 221 226 222 187 201 209 177 180 198 189 198 173 166 190 150 165 160 54 349 315 42 44 359 321 294 262 230 245 262 264 291 47
180 163 149 124 116 199 247 196 214 231 236 232 236 226 222 242 168 193 174 183 177 190 176 156 175 184 188 180 156 72 35 14 355 354 304 270 226 245 208 236 268 197 82 62
188 158 141 161 186 318 272 203 164 191 242 239 238 212 211 127 155 188 155 158 169 173 157 166 186 193 167 206 148 80 323 194 176 228 250 235 254 207 74 44 3 80 99 107
179 216 167 141 159 205 225 214 187 191 251 219 216 197 193 132 175 154 141 158 150 153 154 176 197 187 185 217 177 137 282 33 346 321 182 189 164 155 148 142 142 143 129 125
168 155 179 154 154 248 155 123 158 182 201 229 174 184 152 157 156 139 176 175 150 165 185 193 195 209 206 239 133 139 271 254 88 76 183 214 189 176 192 166 177 146 141 150
167 159 173 136 174 234 150 156 180 140 104 73 120 141 131 114 114 118 120 143 165 178 197 205 218 231 237 222 154 187 244 112 97 113 174 203 199 184 192 168 143 148 146 155
183 205 156 189 180 161 148 141 129 142 125 117 107 105 111 118 122 137 146 159 174 199 223 230 229 242 247 246 205 211 203 150 110 107 166 223 212 189 170 153 176 165 157 176
192 198 143 135 178 153 138 137 140 137 127 113 110 116 119 125 139 154 162 173 195 208 222 235 245 252 244 292 276 286 113 137 144 136 165 218 205 176 174 175 184 174 179 187
146 144 146 108 151 138 148 147 140 138 132 130 128 131 134 144 153 164 182 204 222 238 244 242 242 242 260 261 285 303 312 180 162 145 149 190 204 192 177 200 205 192 165 161
157 176 171 189 171 135 154 147 153 143 145 138 137 140 151 161 166 170 184 207 222 231 238 244 246 252 276 278 259 256 334 30 349 158 156 170 189 193 182 169 136 49 93 148